Preview of NWS' New Version of Forecast
This preview is not operational and should not be used for support decisions.

Regional Weather Roundup (RWR)

Issued by National Weather Service (NWS)

                            
000
ASUS46 KSEW 190020
RWRWA 

WASHINGTON REGIONAL WEATHER ROUNDUP
NATIONAL WEATHER SERVICE SEATTLE WA
500 PM PDT WED SEP 18 2019

NOTE:"FAIR" INDICATES FEW OR NO CLOUDS BELOW 12,000 FEET WITH NO 
SIGNIFICANT WEATHER AND/OR OBSTRUCTIONS TO VISIBILITY.

WAZ507-509-555>559-190100-
SEATTLE, TACOMA, EVERETT, AND VICINITY
  
CITY           SKY/WX    TMP DP  RH WIND       PRES   REMARKS
EVERETT        MOSUNNY   63  53  70 N10       29.93R                  
6HR MIN TEMP:  57; 6HR MAX TEMP:  64;                                

BOEING FIELD   MOSUNNY   67  50  54 NW9       29.91R                  
6HR MIN TEMP:  60; 6HR MAX TEMP:  68;                                

RENTON         PTSUNNY   68  52  56 N9        29.90R                  
6HR MIN TEMP:  60; 6HR MAX TEMP:  68;                                

SEATAC AIRPORT MOSUNNY   67  49  52 N13       29.92R                  
6HR MIN TEMP:  60; 6HR MAX TEMP:  68;                                

JBLM-MCCHORD   PTSUNNY   66  58  75 N9        29.91R                  
6HR MIN TEMP:  58; 6HR MAX TEMP:  67;                                

PUYALLUP       DRIZZLE   64  59  82 VRB3      29.92R                  
BREMERTON      SUNNY     65  52  62 NE8         N/A                   
6HR MIN TEMP:  58; 6HR MAX TEMP:  66;                                

JBLM-FT LEWIS  MOSUNNY   67  59  75 W8        29.90R                  
6HR MIN TEMP:  58; 6HR MAX TEMP:  68; 6HR PCP:  0.03;                

TACOMA NARROWS PTSUNNY   61  52  72 NE8       29.92R                  
6HR MIN TEMP:  55; 6HR MAX TEMP:  64; 6HR PCP: TRACE;                

$$
 
WAZ001-503-506-510-514-515-190100-
NORTH INTERIOR
  
CITY           SKY/WX    TMP DP  RH WIND       PRES   REMARKS
BELLINGHAM     SUNNY     66  52  60 VRB6      29.92R                  
6HR MIN TEMP:  60; 6HR MAX TEMP:  67;                                

FRIDAY HARBOR  SUNNY     65  51  60 NE6       29.93S                  
6HR MIN TEMP:  60; 6HR MAX TEMP:  66;                                

EASTSOUND      SUNNY     61  54  77 CALM      29.92S                  
PORT ANGELES   SUNNY     63  50  62 N3        29.94S                  
6HR MIN TEMP:  55; 6HR MAX TEMP:  64;                                

EDIZ HOOK      FAIR      62  52  69 CALM      29.94R                  
6HR MIN TEMP:  54; 6HR MAX TEMP:  63;                                

PORT TOWNSEND  FAIR      64  52  63 N7        29.92S                  
NAS WHIDBEY    PTSUNNY   62  52  69 W8        29.96S                  
6HR MIN TEMP:  60; 6HR MAX TEMP:  66;                                

ARLINGTON      MOSUNNY   65  52  62 NW13      29.91R                  
6HR MIN TEMP:  60; 6HR MAX TEMP:  68;                                

BURLINGTON     SUNNY     66  54  63 W10       29.92R                  
$$
 
WAZ020-022-039-040-504-511-512-190100-
SOUTHWEST INTERIOR
  
CITY           SKY/WX    TMP DP  RH WIND       PRES   REMARKS
SHELTON        PTSUNNY   66  52  60 SE5       29.89R                  
6HR MIN TEMP:  59; 6HR MAX TEMP:  69;                                

OLYMPIA        MOSUNNY   68  50  52 NE7       29.90R                  
6HR MIN TEMP:  59; 6HR MAX TEMP:  68; 6HR PCP: TRACE;                

CHEHALIS       FAIR      64  55  72 CALM      29.91R                  
KELSO          PTSUNNY   65  56  72 CALM      29.91R                  
6HR MIN TEMP:  60; 6HR MAX TEMP:  67; 6HR PCP:  0.01;                

VANCOUVER      MOSUNNY   66  51  58 NW5       29.88R                  
6HR MIN TEMP:  58; 6HR MAX TEMP:  66;                                

SCAPPOOSE, OR  MOSUNNY   65  52  62 NE3       29.88R                  
6HR MIN TEMP:  60; 6HR MAX TEMP:  68;                                

PORTLAND, OR   PTSUNNY   67  52  58 NW3       29.88S                  
6HR MIN TEMP:  58; 6HR MAX TEMP:  68; 6HR PCP:  0.06;                

$$
 
WAZ021-516-517-190100-
WASHINGTON COAST
  
CITY           SKY/WX    TMP DP  RH WIND       PRES   REMARKS
FORKS          SUNNY     67  55  65 N8        29.92R                  
6HR MIN TEMP:  61; 6HR MAX TEMP:  69;                                

HOQUIAM        MOSUNNY   64  57  78 W8        29.92R                  
6HR MIN TEMP:  59; 6HR MAX TEMP:  65;                                

ASTORIA, OR    MOSUNNY   64  55  72 NW14      29.91R                  
6HR MIN TEMP:  62; 6HR MAX TEMP:  66;                                

$$
 
WAZ019-023-024-040-567>569-190100-
CASCADE MOUNTAINS AND COLUMBIA GORGE
  
CITY           SKY/WX    TMP DP  RH WIND       PRES   REMARKS
STAMPEDE PASS  CLOUDY    48  46  93 CALM      29.94R FOG              
6HR MIN TEMP:  46; 6HR MAX TEMP:  50;                                

TROUTDALE, OR  MOSUNNY   67  52  58 VRB5      29.88S                  
6HR MIN TEMP:  58; 6HR MAX TEMP:  68; 6HR PCP:  0.01;                

HOOD RIVER, OR MOCLDY    63  50  63 CALM      29.88R                  
THE DALLES, OR MOSUNNY   69  48  47 W14G24    29.84R                  
6HR MIN TEMP:  62; 6HR MAX TEMP:  71; 6HR PCP:  0.01;                

$$

WAZ026-027-041>044-520-521-190100-
EAST SLOPES
  
CITY           SKY/WX    TMP DP  RH WIND       PRES   REMARKS
OMAK           MOSUNNY   63  46  54 N12       29.90R                  
6HR MIN TEMP:  53; 6HR MAX TEMP:  65; 6HR PCP: TRACE;                

WENATCHEE      CLOUDY    63  49  60 W9        29.87S                  
6HR MIN TEMP:  56; 6HR MAX TEMP:  65; 6HR PCP:  0.22;                

ELLENSBURG     CLOUDY    62  50  64 E5        29.89R                  
6HR MIN TEMP:  61; 6HR MAX TEMP:  67;                                

YAKIMA         CLOUDY    64  49  57 W3        29.86R                  
6HR MIN TEMP:  61; 6HR MAX TEMP:  69;                                

SUNNYSIDE ARPT CLOUDY    63  55  76 CALM      29.86R                  
6HR MIN TEMP:  61; 6HR MAX TEMP:  69;                                

YAKIMA TC      FAIR      65  46  49 N15       29.85R                  
6HR MIN TEMP:  59; 6HR MAX TEMP:  68;                                

$$

WAZ028-034-035-190100-
COLUMBIA BASIN
  
CITY           SKY/WX    TMP DP  RH WIND       PRES   REMARKS
EPHRATA        PTSUNNY   67  47  48 NW12      29.86R                  
6HR MIN TEMP:  61; 6HR MAX TEMP:  68; 6HR PCP: TRACE;                

MOSES LAKE     MOSUNNY   69  48  47 N14       29.86R                  
6HR MIN TEMP:  63; 6HR MAX TEMP:  73;                                

PASCO          MOSUNNY   73  43  33 CALM      29.83R                  
6HR MIN TEMP:  67; 6HR MAX TEMP:  75;                                

RICHLAND ARPT  PTCLDY    73  46  38 NW8       29.83R                  
6HR MIN TEMP:  69; 6HR MAX TEMP:  76;                                

HERMISTON, OR  PTSUNNY   72  44  36 CALM      29.82S                  
6HR MIN TEMP:  65; 6HR MAX TEMP:  74;                                

$$

WAZ036>038-190100-
NORTHEAST WASHINGTON
  
CITY           SKY/WX    TMP DP  RH WIND       PRES   REMARKS
SPOKANE GEIGER LGT RAIN  55  49  80 N8        29.90R                  
6HR MIN TEMP:  55; 6HR MAX TEMP:  61; 6HR PCP:  0.03;                

SPOKANE FELTS  CLOUDY    59  48  67 NE5       29.91R                  
6HR MIN TEMP:  58; 6HR MAX TEMP:  64; 6HR PCP:  0.01;                

FAIRCHILD AFB  PTSUNNY   54  54 100 NE10      29.89S                  
6HR MIN TEMP:  52; 6HR MAX TEMP:  60; 6HR PCP:  0.32;                

COEURDALENE,ID CLOUDY    58  50  75 N8        29.91R                  
6HR MIN TEMP:  56; 6HR MAX TEMP:  59; 6HR PCP:  0.04;                

DEER PARK      PTSUNNY   56  52  86 CALM      29.91R                  
6HR MIN TEMP:  55; 6HR MAX TEMP:  59; 6HR PCP:  0.06;                

$$

WAZ029>033-190100-
SOUTHEAST WASHINGTON
  
CITY           SKY/WX    TMP DP  RH WIND       PRES   REMARKS
PULLMAN        CLOUDY    59  47  64 S5        29.90R                  
6HR MIN TEMP:  57; 6HR MAX TEMP:  63;                                

LEWISTON, ID   CLOUDY    64  45  49 W6        29.86S                  
6HR MIN TEMP:  62; 6HR MAX TEMP:  69; 6HR PCP: TRACE;                

WALLA WALLA    MOSUNNY   69  43  38 CALM      29.84R                  
6HR MIN TEMP:  64; 6HR MAX TEMP:  71;                                

PENDLETON, OR  PTSUNNY   69  42  37 NW9       29.84S                  
6HR MIN TEMP:  63; 6HR MAX TEMP:  71; 6HR PCP: TRACE;                

$$